Showing default

BLACK KITE-2, 68474

Orbit data source: Space-Track

BLACK KITE-2, 68474 is a Taiwanese payload satellite in SSO that was launched on Mon, 30 Mar 2026 UTC via an FALCON 9 launch vehicle from the Air Force Western Test Range (AFWTR). Payload-class satellites include a variety of spacecraft equipped with specific instruments for various scientific and technological missions. These include communications satellites like Starlink; space stations such as the ISS; scientific satellites like the Hubble; Earth observation satellites from companies like Planet Labs, Umbra, and HawkEye 360; GPS; miniature CubeSats for education and research; and military/defense satellites.

Loading next visibility...
Identifier
68474, 2026-067BL
Orbit
SSO
Country
Flag of TWTW / TWN
Related business
Manufacturer
RAPTEK
Mission
Operational spacecraft
Bus & Motor
CUBESAT 8U, Unknown motor
Mass
15 kg wet, ~15 kg dry
Launch date (UTC)
2026-03-30 (1 month ago)
Launch vehicle
FALCON 9
Launch site
Air Force Western Test Range (AFWTR)
Object type
Payload
Rocket body
Debris
Shape & HBR
Unknown shape, 14.5 m
Radar Cross Section
RCS unknown

Expand to show TLE details & history
Last TLE update: 16 hours ago

TLE from 16 hours ago
0 BLACK KITE-2
1 68474U 26067BL  26127.11665591  .00002205  00000-0  22087-3 0  9993
2 68474  97.7531  86.0272 0003379  51.3835 308.7687 14.92399369  5600
Epoch: 2026-05-07T02:47Z
TLE epoch observation values (Epoch: 2026-05-07T02:47:59.070Z)
Latitude
0.00004°
Longitude
179.06366°
Altitude
592.025 km
Speed
7.565 km/s
True Right ascension
05h 44m 06s
True Declination
0° 00' 00"
Sunlit
Object was in daylight at epoch
Visualization orbit readout
Latitude
Unknown
Longitude
Unknown
Altitude
Unknown
Speed
Unknown
Apparent Right ascension
Unknown
Apparent Declination
Unknown
Sunlit
N/A
Visualization observer readout
Local Sidereal Time
02:58:23
Azimuth
Unknown
Elevation
Unknown
Doppler factor
Unknown
Orbital elements
Apogee altitude
589.828 km
Perigee altitude
585.121 km
Semi-major axis
6,965.611 km
Eccentricity
0.00034
Inclination
97.7531°
RAAN
86.0272°
Arg. of periapsis
51.3835°
True anomaly
308.7385°
Mean anomaly
308.7687°
Eccentric anomaly
308.7536°
Mean motion
3.7334 °/min
Orbital period
96.43 mins
BSTAR
0.00022087
Loading maneuver chart data...
Computing Atmospheric mass density...
Loading historical data...
Loading historical data...
Loading historical data...
Loading historical data...
Loading historical data...
Loading historical data...
Loading historical data...

Documentation

Showing up to 5 results
|